Weather History for K3R7 - October, 2012

Change the Weather History Date:

Tuesday, October 30, 2012

  Actual Average (KLCH) Record (KLCH)
Temperature  
Mean Temperature 54 °F 66 °F  
Max Temperature 70 °F 77 °F 89 °F (1922)
Min Temperature 38 °F 55 °F 37 °F (1908)
Degree Days  
Heating Degree Days 11 3  
Month to date heating degree days 31  
Since 1 July heating degree days 32  
Cooling Degree Days 0 4  
Month to date cooling degree days 190  
Year to date cooling degree days 2730  
Growing Degree Days 4 (Base 50)    
Moisture  
Dew Point 41 °F    
Average Humidity 65    
Maximum Humidity 98    
Minimum Humidity 29    
Precipitation  
Precipitation 0.00 in 0.16 in 2.52 in (1991)
Month to date precipitation 4.73  
Year to date precipitation 48.21  
Snow  
Snow - 0.00 in 0.00 in ()
Month to date snowfall 0.0  
Since 1 July snowfall 0.0  
Since 1 September snowfall 0.0  
Snow Depth -    
Sea Level Pressure  
Sea Level Pressure 30.09 in    
Wind  
Wind Speed 2 mph ()    
Max Wind Speed 10 mph    
Max Gust Speed 9 mph    
Visibility 10.0 miles    
Events      
T = Trace of Precipitation, MM = Missing Value Source: Averaged Metar Reports

Daily Weather History Graph

Daily Weather History Graph

Search for Another Location

Airport or City:

Trip Planner

Search our weather history database for the weather conditions in past years. The results will help you decide how hot, cold, wet, or windy it might be!

Date:

Astronomy

Oct. 30, 2012 Rise Set
Actual Time 7:23 AM CDT 6:24 PM CDT
Civil Twilight 6:59 AM CDT 6:49 PM CDT
Nautical Twilight 6:30 AM CDT 7:17 PM CDT
Astronomical Twilight 6:02 AM CDT 7:45 PM CDT
Moon 7:00 PM CDT (10/30) 8:05 AM CDT (10/30)
Length of Visible Light 11h 50m
Length of Day
11h 00m
Full, 99% of the Moon is Illuminated
Oct 30
Full
Nov 6
Last Quarter
Nov 13
New
Nov 20
First Quarter
Nov 28
Full

Hourly Weather History & Observations

Time (CDT) Temp. Dew Point Humidity Pressure Visibility Wind Dir Wind Speed Gust Speed Precip Events Conditions
12:15 AM 47.1 °F 39.2 °F 74% 30.15 in 10.0 mi Calm Calm - N/A   Clear
12:35 AM 47.3 °F 39.2 °F 73% 30.15 in 10.0 mi Calm Calm - N/A   Clear
12:55 AM 44.4 °F 40.3 °F 85% 30.15 in 10.0 mi Calm Calm - N/A   Clear
1:15 AM 43.0 °F 39.4 °F 87% 30.15 in 10.0 mi Calm Calm - N/A   Clear
1:35 AM 43.3 °F 40.1 °F 88% 30.14 in 10.0 mi Calm Calm - N/A   Clear
2:55 AM 42.8 °F 39.4 °F 88% 30.13 in 10.0 mi Calm Calm - N/A   Clear
3:15 AM 42.3 °F 38.8 °F 88% 30.13 in 10.0 mi Calm Calm - N/A   Clear
3:55 AM 41.4 °F 39.9 °F 95% 30.13 in 10.0 mi Calm Calm - N/A   Clear
4:15 AM 42.6 °F 40.3 °F 91% 30.12 in 10.0 mi Calm Calm - N/A   Clear
4:35 AM 42.1 °F 40.1 °F 93% 30.12 in 10.0 mi Calm Calm - N/A   Clear
4:55 AM 41.0 °F 39.9 °F 96% 30.13 in 10.0 mi Calm Calm - N/A   Clear
5:15 AM 40.6 °F 40.1 °F 98% 30.13 in 10.0 mi Calm Calm - N/A   Clear
5:35 AM 41.0 °F 40.3 °F 97% 30.14 in 10.0 mi Calm Calm - N/A   Clear
5:55 AM 40.6 °F 40.1 °F 98% 30.13 in 10.0 mi Calm Calm - N/A   Clear
6:15 AM 41.2 °F 40.3 °F 97% 30.13 in 10.0 mi Calm Calm - N/A   Clear
6:35 AM 41.0 °F 39.7 °F 95% 30.13 in 10.0 mi Calm Calm - N/A   Clear
6:55 AM 40.3 °F 39.0 °F 95% 30.13 in 10.0 mi Calm Calm - N/A   Clear
7:15 AM 40.1 °F 38.7 °F 95% 30.13 in 10.0 mi Calm Calm - N/A   Clear
7:35 AM 38.8 °F 38.1 °F 97% 30.13 in 10.0 mi Calm Calm - N/A   Clear
7:55 AM 40.5 °F 38.8 °F 94% 30.13 in 10.0 mi Calm Calm - N/A   Clear
8:15 AM 41.4 °F 39.4 °F 93% 30.14 in 10.0 mi Calm Calm - N/A   Clear
8:35 AM 45.5 °F 41.4 °F 85% 30.14 in 10.0 mi Calm Calm - N/A   Clear
8:55 AM 48.7 °F 40.8 °F 74% 30.14 in 10.0 mi Calm Calm - N/A   Clear
9:15 AM 51.4 °F 39.4 °F 63% 30.14 in 10.0 mi Calm Calm - N/A   Clear
9:35 AM 54.1 °F 37.9 °F 54% 30.14 in 10.0 mi Calm Calm - N/A   Clear
9:55 AM 55.8 °F 36.5 °F 48% 30.14 in 10.0 mi Calm Calm - N/A   Clear
10:15 AM 56.8 °F 37.6 °F 49% 30.14 in 10.0 mi Calm Calm - N/A   Clear
10:35 AM 58.3 °F 36.5 °F 44% 30.13 in 10.0 mi Calm Calm - N/A   Clear
10:55 AM 59.7 °F 38.5 °F 45% 30.13 in 10.0 mi Calm Calm - N/A   Clear
11:15 AM 61.0 °F 37.2 °F 41% 30.13 in 10.0 mi Calm Calm - N/A   Clear
11:35 AM 61.9 °F 37.8 °F 41% 30.13 in 10.0 mi Calm Calm - N/A   Clear
11:55 AM 63.1 °F 37.2 °F 38% 30.12 in 10.0 mi West 4.6 mph - N/A   Clear
12:15 PM 65.1 °F 38.3 °F 37% 30.12 in 10.0 mi SW 4.6 mph - N/A   Clear
12:35 PM 65.5 °F 37.2 °F 35% 30.11 in 10.0 mi West 6.9 mph - N/A   Clear
12:55 PM 66.6 °F 37.9 °F 35% 30.10 in 10.0 mi West 5.8 mph - N/A   Clear
1:15 PM 67.3 °F 37.4 °F 33% 30.08 in 10.0 mi West 8.1 mph - N/A   Clear
1:35 PM 67.5 °F 37.0 °F 33% 30.07 in 10.0 mi NW 5.8 mph 9.2 mph N/A   Clear
1:55 PM 68.5 °F 37.0 °F 31% 30.06 in 10.0 mi WSW 5.8 mph - N/A   Clear
2:15 PM 68.5 °F 37.0 °F 31% 30.05 in 10.0 mi West 4.6 mph - N/A   Clear
2:35 PM 68.2 °F 37.4 °F 32% 30.05 in 10.0 mi WSW 3.5 mph - N/A   Clear
2:55 PM 69.8 °F 37.2 °F 30% 30.04 in 10.0 mi West 8.1 mph - N/A   Clear
3:15 PM 69.4 °F 37.2 °F 31% 30.03 in 10.0 mi West 6.9 mph - N/A   Clear
3:35 PM 70.0 °F 37.2 °F 30% 30.02 in 10.0 mi West 5.8 mph - N/A   Clear
3:55 PM 70.5 °F 36.5 °F 29% 30.02 in 10.0 mi West 10.4 mph - N/A   Clear
4:15 PM 70.0 °F 37.6 °F 31% 30.02 in 10.0 mi WNW 6.9 mph - N/A   Clear
4:35 PM 69.8 °F 37.0 °F 30% 30.02 in 10.0 mi WNW 8.1 mph - N/A   Clear
4:55 PM 68.9 °F 38.7 °F 33% 30.02 in 10.0 mi West 4.6 mph - N/A   Clear
5:15 PM 68.9 °F 38.7 °F 33% 30.02 in 10.0 mi West 6.9 mph - N/A   Clear
5:35 PM 68.0 °F 40.5 °F 37% 30.02 in 10.0 mi WSW 6.9 mph - N/A   Clear
5:55 PM 66.6 °F 41.7 °F 40% 30.02 in 10.0 mi WSW 4.6 mph - N/A   Clear
6:15 PM 64.2 °F 43.0 °F 46% 30.02 in 10.0 mi SW 6.9 mph - N/A   Clear
6:35 PM 62.6 °F 43.9 °F 50% 30.02 in 10.0 mi SW 5.8 mph - N/A   Clear
6:55 PM 61.3 °F 44.8 °F 55% 30.03 in 10.0 mi SW 6.9 mph - N/A   Clear
7:15 PM 60.1 °F 45.9 °F 59% 30.03 in 10.0 mi SW 4.6 mph - N/A   Clear
7:35 PM 59.5 °F 46.4 °F 62% 30.04 in 10.0 mi SSW 4.6 mph - N/A   Clear
7:55 PM 58.6 °F 46.8 °F 65% 30.04 in 10.0 mi SSW 4.6 mph - N/A   Clear
8:15 PM 57.7 °F 47.3 °F 68% 30.04 in 10.0 mi SSW 4.6 mph - N/A   Clear
8:35 PM 56.5 °F 47.8 °F 73% 30.04 in 10.0 mi SSW 3.5 mph - N/A   Clear
8:55 PM 55.9 °F 48.2 °F 75% 30.04 in 10.0 mi South 4.6 mph - N/A   Clear
9:15 PM 54.9 °F 48.2 °F 78% 30.05 in 10.0 mi South 3.5 mph - N/A   Clear
9:35 PM 54.1 °F 48.2 °F 80% 30.05 in 10.0 mi South 4.6 mph - N/A   Clear
9:55 PM 54.7 °F 48.7 °F 80% 30.05 in 10.0 mi South 4.6 mph - N/A   Clear
10:15 PM 54.7 °F 49.1 °F 81% 30.05 in 10.0 mi SSW 3.5 mph - N/A   Clear
10:35 PM 54.1 °F 49.1 °F 83% 30.04 in 10.0 mi South 4.6 mph - N/A   Clear
10:55 PM 54.0 °F 49.5 °F 85% 30.04 in 10.0 mi South 4.6 mph - N/A   Clear
11:15 PM 53.8 °F 49.6 °F 86% 30.04 in 10.0 mi South 4.6 mph - N/A   Clear
11:35 PM 53.2 °F 50.0 °F 89% 30.04 in 10.0 mi South 3.5 mph - N/A   Clear
11:55 PM 53.6 °F 50.4 °F 89% 30.03 in 10.0 mi South 4.6 mph - N/A   Clear